Location: Newark
(42.8481°N, 0.4872°E)
Time: 07:45:00
(UTC+00:00)

Vanguard 2 - Pass Details

Date: 27 October 2020
Orbit: 554 x 2937 km, 32.9° (Epoch: 26 November)

Event Time Altitude Azimuth Distance (km) Brightness Sun altitude
Rises 19:48:05 0° 235° (SW) 5,353 12.4 -31.9°
Reaches altitude 10° 19:51:19 10° 230° (SW) 4,634 11.9 -32.5°
Maximum altitude 20:04:36 51° 160° (SSE) 3,228 10.3 -34.8°
Enters shadow 20:06:34 49° 142° (SE) 3,339 10.3 -35.2°
Drops below altitude 10° 20:21:22 10° 92° (E) 5,749 - -37.8°
Sets 20:25:54 0° 88° (E) 6,685 - -38.5°
